North Myrtle Beach, SC

11:53 PM EDT on May 27, 2017 (GMT -0400)
Grand Strand

Weather History for KCRE - May, 2013

Change the Weather History Date:

Thursday, May 2, 2013

  Actual Average Record
Temperature  
Mean Temperature 67 °F 66 °F  
Max Temperature 73 °F 76 °F 90 °F (1952)
Min Temperature 61 °F 57 °F 48 °F (2001)
Degree Days  
Heating Degree Days 0 2  
Month to date heating degree days 0 4  
Since 1 July heating degree days 2390 2427  
Cooling Degree Days 2 3  
Month to date cooling degree days 4 6  
Year to date cooling degree days 38 48  
Growing Degree Days 17 (Base 50)    
Moisture  
Dew Point 60 °F    
Average Humidity 80    
Maximum Humidity 93    
Minimum Humidity 66    
Precipitation  
Precipitation T in 0.10 in 1.87 in (2004)
Month to date precipitation 0.01 0.19  
Year to date precipitation 15.07 14.18  
Sea Level Pressure  
Sea Level Pressure 30.20 in    
Wind  
Wind Speed 12 mph (NE)    
Max Wind Speed 22 mph    
Max Gust Speed 28 mph    
Visibility 10 miles    
Events      
T = Trace of Precipitation, MM = Missing Value Source: NWS Daily Summary

Daily Weather History Graph

Daily Weather History Graph

Search for Another Location

Airport or City:

Trip Planner

Search our weather history database for the weather conditions in past years. The results will help you decide how hot, cold, wet, or windy it might be!

Date:

Astronomy

May. 02, 2013 Rise Set
Actual Time 6:24 AM EDT 7:59 PM EDT
Civil Twilight 5:58 AM EDT 8:26 PM EDT
Nautical Twilight 5:26 AM EDT 8:58 PM EDT
Astronomical Twilight 4:52 AM EDT 9:31 PM EDT
Moon 1:49 AM EDT (5/2) 1:06 PM EDT (5/2)
Length of Visible Light 14h 27m
Length of Day
13h 34m
Waning Gibbous, 48% of the Moon is Illuminated
May 2
Waning Gibbous
May 9
New
May 18
First Quarter
May 25
Full
May 31
Last Quarter

Hourly Weather History & Observations

Time (EDT) Temp. Dew Point Humidity Pressure Visibility Wind Dir Wind Speed Gust Speed Precip Events Conditions
12:09 AM 64.4 °F 62.6 °F 94% 30.21 in 10.0 mi NE 8.1 mph - N/A   Overcast
12:20 AM 64.4 °F 62.6 °F 94% 30.21 in 10.0 mi ENE 8.1 mph - N/A   Overcast
12:51 AM 64.4 °F 62.6 °F 94% 30.20 in 10.0 mi ENE 6.9 mph - 0.00 in   Overcast
12:53 AM 64.9 °F 62.1 °F 90% 30.21 in 10.0 mi ENE 6.9 mph - 0.00 in   Overcast
1:53 AM 64.0 °F 61.0 °F 90% 30.20 in 10.0 mi NE 10.4 mph - 0.00 in   Overcast
2:11 AM 64.4 °F 60.8 °F 88% 30.19 in 10.0 mi NE 11.5 mph - N/A   Overcast
2:53 AM 64.0 °F 61.0 °F 90% 30.19 in 10.0 mi NE 11.5 mph - N/A   Overcast
3:53 AM 63.0 °F 61.0 °F 93% 30.18 in 10.0 mi NE 13.8 mph - N/A   Overcast
4:49 AM 64.4 °F 60.8 °F 88% 30.18 in 10.0 mi NE 13.8 mph - N/A   Overcast
4:53 AM 64.0 °F 61.0 °F 90% 30.18 in 10.0 mi NE 15.0 mph 23.0 mph N/A   Overcast
5:07 AM 62.6 °F 60.8 °F 94% 30.17 in 10.0 mi NE 13.8 mph 18.4 mph N/A   Overcast
5:53 AM 63.0 °F 60.1 °F 90% 30.18 in 10.0 mi NE 12.7 mph - N/A   Overcast
6:53 AM 62.1 °F 59.0 °F 90% 30.19 in 10.0 mi NE 17.3 mph 21.9 mph N/A   Overcast
7:53 AM 62.1 °F 59.0 °F 90% 30.21 in 9.0 mi ENE 10.4 mph 21.9 mph N/A   Overcast
8:53 AM 63.0 °F 59.0 °F 87% 30.22 in 10.0 mi NNE 12.7 mph - N/A   Overcast
9:49 AM 66.2 °F 60.8 °F 83% 30.22 in 10.0 mi NE 16.1 mph 20.7 mph N/A   Overcast
9:53 AM 66.0 °F 60.1 °F 81% 30.22 in 10.0 mi NE 13.8 mph 20.7 mph N/A   Overcast
10:36 AM 68.0 °F 60.8 °F 78% 30.22 in 10.0 mi NE 13.8 mph 20.7 mph N/A   Mostly Cloudy
10:53 AM 70.0 °F 61.0 °F 73% 30.23 in 10.0 mi ENE 13.8 mph - N/A   Mostly Cloudy
11:48 AM 71.6 °F 60.8 °F 69% 30.22 in 10.0 mi NE 9.2 mph - N/A   Overcast
11:53 AM 71.1 °F 61.0 °F 70% 30.22 in 10.0 mi ENE 12.7 mph - N/A   Overcast
12:11 PM 69.8 °F 60.8 °F 73% 30.22 in 10.0 mi NE 11.5 mph - N/A   Overcast
12:42 PM 69.8 °F 62.6 °F 78% 30.22 in 10.0 mi East 11.5 mph 19.6 mph N/A   Scattered Clouds
12:53 PM 70.0 °F 61.0 °F 73% 30.22 in 10.0 mi East 13.8 mph 24.2 mph N/A   Partly Cloudy
1:53 PM 72.0 °F 61.0 °F 68% 30.22 in 10.0 mi East 9.2 mph 19.6 mph N/A   Overcast
2:53 PM 71.1 °F 59.0 °F 66% 30.22 in 10.0 mi ENE 16.1 mph 21.9 mph N/A   Overcast
3:53 PM 71.1 °F 60.1 °F 68% 30.19 in 10.0 mi East 10.4 mph 18.4 mph N/A   Overcast
4:12 PM 71.6 °F 60.8 °F 69% 30.19 in 10.0 mi ENE 15.0 mph - N/A   Overcast
4:53 PM 66.9 °F 61.0 °F 81% 30.19 in 10.0 mi NE 16.1 mph 25.3 mph N/A   Mostly Cloudy
5:37 PM 69.8 °F 60.8 °F 73% 30.18 in 10.0 mi ENE 19.6 mph 24.2 mph N/A   Scattered Clouds
5:53 PM 68.0 °F 59.0 °F 73% 30.18 in 10.0 mi East 11.5 mph - N/A   Mostly Cloudy
6:53 PM 66.9 °F 57.9 °F 73% 30.18 in 10.0 mi ENE 10.4 mph - N/A   Overcast
7:53 PM 66.0 °F 57.0 °F 73% 30.19 in 10.0 mi NE 10.4 mph - N/A   Overcast
8:53 PM 63.0 °F 59.0 °F 87% 30.19 in 10.0 mi NE 8.1 mph - N/A   Clear
9:53 PM 63.0 °F 57.0 °F 81% 30.20 in 10.0 mi NE 9.2 mph - N/A   Mostly Cloudy
10:53 PM 63.0 °F 55.9 °F 78% 30.18 in 10.0 mi ENE 13.8 mph - N/A   Scattered Clouds
11:53 PM 62.1 °F 55.9 °F 80% 30.17 in 10.0 mi NNE 10.4 mph - N/A   Clear